AirNav   Air Wisconsin Up To $57,000 Bonus
 
 666 users online  

3IS4 Merkle Airport
Hanover, Illinois, USA

GOING TO HANOVER?


FAA INFORMATION EFFECTIVE 15 JULY 2021

Location

FAA Identifier: 3IS4
Lat/Long: 42-17-20.0510N 090-20-43.4620W
42-17.334183N 090-20.724367W
42.2889031,-90.3454061
(estimated)
Elevation: 970 ft. / 296 m (estimated)
Variation: 01E (1985)
From city: 3 miles W of HANOVER, IL
Time zone: UTC -5 (UTC -6 during Standard Time)
Zip code: 61041

Airport Operations

Airport use: Private use. Permission required prior to landing
Activation date: 12/1983
Control tower: no
ARTCC: CHICAGO CENTER
FSS: KANKAKEE FLIGHT SERVICE STATION
Attendance: UNATNDD
Wind indicator: no
Segmented circle: no

Airport Communications

WX ASOS at DBQ (18 nm NW): PHONE 563-557-2579
WX AWOS-3PT at SFY (18 nm SE): 118.650 (815-273-4429)

Nearby radio navigation aids

VOR radial/distance  VOR name  Freq  Var
DBQr109/17.5DUBUQUE VORTAC115.8004E
CVAr006/35.4DAVENPORT VORTAC113.8004E

 
NDB name  Hdg/Dist  Freq  Var  ID
ZILOM096/11.434104EDB -.. -...

Airport Services

Runway Information

Runway 18/36

Dimensions: 2900 x 100 ft. / 884 x 30 m
Surface: turf
Runway edge lights: low intensity
RUNWAY 18  RUNWAY 36
Traffic pattern: leftleft
Displaced threshold: 300 ft.no
Obstructions: road, 300 ft. from runway4 ft. fence, 200 ft. from runway

Airport Ownership and Management from official FAA records

Ownership: Privately-owned
Owner: BETTY LOU MERKLE
6964 BEATY HOLLOW ROAD
HANOVER, IL 61041
Phone 815-281-1778
Manager: BETTY LOU MERKLE
6964 BEATY HOLLOW ROAD
HANOVER, IL 61041
Phone 815-777-1778

Airport Operational Statistics

Aircraft based on the field: 1
Single engine airplanes: 1
    

Additional Remarks

FOR CD CTC CHICAGO ARTCC AT 630-906-8921.

Instrument Procedures

There are no published instrument procedures at 3IS4.

Some nearby airports with instrument procedures:

KDBQ - Dubuque Regional Airport (18 nm NW)
KSFY - Tri-Township Airport (18 nm SE)
KOQW - Maquoketa Municipal Airport (23 nm SW)
KPVB - Platteville Municipal Airport (24 nm N)
KCWI - Clinton Municipal Airport (27 nm S)
 
Loc | Ops | Rwys | IFR | FBO | Links
Com | Nav | Svcs | Stats | Notes
Area around 3IS4 (Merkle Airport)
 
Road maps at: MapQuest Bing Google
 
Aerial photo
No photo
 
Sectional chart

 
Airport distance calculator
Flying to Merkle Airport? Find the distance to fly.

From to 3IS4

Sunrise and sunset
Times for 05-Aug-2021
 Local
(UTC-5)
 Zulu
(UTC)
Morning civil twilight05:2810:28
Sunrise05:5910:59
Sunset20:1601:16
Evening civil twilight20:4701:47

Current date and time
Zulu (UTC)  06-Aug-2021 04:32:31
Local (UTC-5)  05-Aug-2021 23:32:31
 
METAR
KDBQ 
17nm NW 
060353Z AUTO 18008KT 10SM OVC090 21/17 A2998 RMK AO2 SLP146 T02060167
KPVB 
24nm N 
060415Z AUTO 17007KT 10SM BKN026 BKN031 OVC085 21/19 A2999 RMK AO1 T02100185
KCWI 
28nm S 
051556Z AUTO 18011KT 10SM CLR 25/18 A3010 RMK AO2 SLP195 T02500183
KFEP 
34nm E 
060415Z AUTO 19007KT 10SM SCT037 OVC065 23/15 A3001 RMK AO2 T02260151
TAF
KDBQ 
17nm NW 
052231Z 0523/0618 18009KT P6SM SCT070 OVC090 FM060900 20007KT 5SM BR BKN020
NOTAMs
Click for the latest NOTAMs
NOTAMs are issued by the DoD/FAA and will open in a separate window not controlled by AirNav.

 

 
 

Would you like to see your business listed on this page?

 If your business provides an interesting product or service to pilots, flight crews, aircraft, or users of the Merkle Airport, you should consider listing it here.  To start the listing process, click on the button below
 
Add a business
 

Other Pages about Merkle Airport

Update a link
 
Copyright © AirNav, LLC. All rights reserved. Privacy Policy  Contact